Regional Weather Roundup
Issued by NWS

Home | Current Version | Previous Version | Graphics & Text | Print | Product List | Glossary On
Versions: 1 2 3 4 5 6 7 8 9 10 11 12 13 14 15 16 17 18 19 20 21 22 23 24 25 26 27 28 29 30 31 32 33 34 35 36 37 38 39 40 41 42 43 44 45 46 47 48 49 50
000
ASUS43 KFSD 312302
RWRSD

WEATHER ROUNDUP FOR SOUTH DAKOTA
NATIONAL WEATHER SERVICE SIOUX FALLS SD
600 PM CDT MON AUG 31 2015

NOTE: "FAIR" INDICATES FEW OR NO CLOUDS BELOW 12,000 FEET WITH NO
SIGNIFICANT WEATHER AND/OR OBSTRUCTIONS TO VISIBILITY.


SDZ001>005-009-010-012>017-010000-
NORTHWEST AND NORTH CENTRAL SOUTH DAKOTA

CITY           SKY/WX    TMP DP  RH WIND       PRES   REMARKS
BUFFALO          N/A     79  44  28 SE6       29.87S
FAITH            N/A     77  48  35 E5        29.92F
MOBRIDGE       CLOUDY    79  60  52 N6        29.86F
$$

SDZ012>016-024>037-041>051-057-063-072>074-010000-
SOUTHWEST AND SOUTH CENTRAL SOUTH DAKOTA

CITY           SKY/WX    TMP DP  RH WIND       PRES   REMARKS
RAPID CTY ARPT MOSUNNY   73  57  57 SE10      29.96F
PIERRE         PTSUNNY   77  60  55 NE6       29.88F
CUSTER         PTSUNNY   68  52  56 SE7       30.07F
ELLSWORTH AFB  MOSUNNY   75  57  53 S10       29.94F
PHILIP         PTSUNNY   77  61  57 SE6       29.92S
PINE RIDGE     PTSUNNY   80  57  45 E6        29.97F
WINNER         FAIR      78  62  57 NW10      29.90F
$$

SDZ004>011-016>023-039-040-010000-
NORTHEAST SOUTH DAKOTA

CITY           SKY/WX    TMP DP  RH WIND       PRES   REMARKS
ABERDEEN       CLOUDY    79  64  60 N7        29.86S
WATERTOWN      SUNNY     81  66  60 NW13      29.88R
BROOKINGS      SUNNY     82  70  65 S9        29.89S
$$

SDZ017-020-022-023-036>040-048>070-010000-
SOUTHEAST SOUTH DAKOTA

CITY           SKY/WX    TMP DP  RH WIND       PRES   REMARKS
SIOUX FALLS    MOSUNNY   82  69  64 S13       29.88R
HURON          PTSUNNY   78  66  66 NE7       29.84F HAZE
CHAMBERLAIN    CLOUDY    78  65  63 NE7       29.87F
MITCHELL       SUNNY     83  67  58 N8        29.86R
YANKTON        SUNNY     84  70  61 S13       29.85S
$$

ABBREVIATIONS USED IN REMARKS
   TC - TEMPERATURE IN CELSIUS
  WCI - WIND CHILL INDEX
   HX - HEAT INDEX
  VSB - VISIBILITY



USA.gov is the U.S. government's official web portal to all federal, state and local government web resources and services.